Miscellaneous Local Product
Issued by NWS Hastings, NE

Home | Current Version | Previous Version | Graphics & Text | Print | Product List | Glossary On
Versions: 1 2 3 4 5 6 7 8 9 10 11 12 13 14 15 16 17 18 19 20 21 22 23 24 25 26 27 28 29 30 31 32 33 34 35 36 37 38 39 40 41 42 43 44 45 46 47 48 49 50
364
AXUS43 KGID 040102
MISGRI

GID CWA HOURLY WEATHER ROUNDUP
NATIONAL WEATHER SERVICE HASTINGS NE
800 PM CDT TUE MAY 03 2016

NOTE: "FAIR" INDICATES FEW OR NO CLOUDS BELOW 12,000 FEET WITH NO
SIGNIFICANT WEATHER AND/OR OBSTRUCTIONS TO VISIBILITY.

...SOUTH CENTRAL NEBRASKA...

CITY           SKY/WX    TMP DP  RH WIND       PRES   REMARKS
GRAND ISLAND   CLEAR     65  44  46 W8        29.97F
HASTINGS       CLEAR     65  42  43 W8        29.98F
KEARNEY        CLEAR     66  43  42 W6        30.00F
ORD            CLEAR     65  43  44 NW9       29.96S
YORK           CLEAR     64  45  48 W9        29.95F
AURORA         CLEAR     66  42  42 W9        29.96F
LEXINGTON      CLEAR     64  46  51 NW6       30.01F
HOLDREGE       CLEAR     66  37  34 NW7       30.01F
HEBRON         CLEAR     68  41  37 NW8       29.97F

...NEBRASKA PANHANDLE...

CITY           SKY/WX    TMP DP  RH WIND       PRES   REMARKS
CHADRON        CLEAR     68  43  40 NE9       30.08S
ALLIANCE       CLEAR     65  39  38 N10       30.10R
SCOTTSBLUFF    PTCLDY    71  38  29 N9        30.10S
SIDNEY         CLEAR     65  32  29 N8        30.13S

...WESTERN AND NORTH CENTRAL NEBRASKA...

CITY           SKY/WX    TMP DP  RH WIND       PRES   REMARKS
VALENTINE      CLEAR     69  37  30 NW12      30.01S
AINSWORTH      CLEAR     66  41  39 NW9       30.01S
ONEILL         CLEAR     68  38  32 NW14      29.95F
BROKEN BOW     LGT RAIN  66  40  38 NW7       30.00S
IMPERIAL       CLEAR     66  35  31 N10       30.07S
NORTH PLATTE   CLEAR     66  34  30 N9        30.03S
MCCOOK         CLEAR     65  40  39 N8        30.04S

...EASTERN NEBRASKA...

CITY           SKY/WX    TMP DP  RH WIND       PRES   REMARKS
NORFOLK        CLEAR     65  42  43 NW8       29.91S
SO SIOUX CITY  CLEAR     66  47  50 MISG      29.85F
TEKAMAH        CLEAR     66  45  46 NW10      29.88F
COLUMBUS       CLEAR     66  39  37 NW10      29.94R
ALBION         CLEAR     64  42  45 NW9       29.95S
OMAHA EPPLEY   PTCLDY    68  42  38 NW10      29.88F
OFFUTT AFB     CLEAR     68  44  41 W9        29.89F
MILLARD        CLEAR     70  41  35 W15G22    29.89F
LINCOLN        CLEAR     69  40  34 W8        29.93F
NEBRASKA CITY  CLEAR     66  40  39 W10       29.92F
BEATRICE       CLEAR     64  43  45 NW7       29.95S
FALLS CITY     CLEAR     64  43  46 W7        29.92F

...NORTHERN KANSAS...

CITY           SKY/WX    TMP DP  RH WIND       PRES   REMARKS
GOODLAND       CLEAR     64  34  32 N10       30.09S
HILL CITY      CLEAR     66  43  43 NW6       30.04S
NORTON         CLEAR     63  37  39 NW8       30.03
PHILLIPSBURG   CLEAR     64  43  45 CALM      30.02S
SMITH CENTER   CLEAR     61  46  59 NW7       30.01S
BELOIT         CLEAR     66  39  37 NW5       29.98S
HAYS           CLEAR     63  43  48 N8        30.03S
RUSSELL        PTCLDY    65  44  46 NW9       30.00S
CONCORDIA      CLEAR     64  43  46 W7        29.98S
SALINA         CLEAR     67  47  48 NW9       29.98S
TOPEKA         CLEAR     67  42  40 W3        29.94F



USA.gov is the U.S. government's official web portal to all federal, state and local government web resources and services.